[[{"header":{"parameterUnit":"m.s-1","parameterCategory":1,"la1":30.2991,"la2":30.254,"lo1":-89.0895,"lo2":-89.0444,"dy":0.0017,"dx":0.0017,"nx":28,"ny":28,"refTime":"2025-08-29T21:00:00:Z","depth":0,"parameterNumber":2,"parameterNumberName":"U-component_of_WINDS"},"data":[0,0,0,0,0,0,0,0,0,0,0,0,0,0,0,0,0,0,0,0,0,0,0,0,0,0,0,0,0,0,0,0,0,0,0,0,0,0,0,0,0,0,0,0,0,0,0,0,0,0,0,0,0,0,0,0,0,0,0.8085,0.8086,0,0.8153,0.8154,0.8155,0.8128,0.8127,0.8125,0.8124,0.8194,0.8197,0.82,0,0,0,0,0,0,0,0,0,0,0,0,0,0.7932,0.7935,0.8085,0.8086,0.8087,0.8153,0.8154,0.8155,0.8129,0.8127,0.8125,0.8123,0.8193,0.8197,0.8201,0,0,0,0,0,0,0,0,0,0,0,0,0,0.7999,0.7936,0.8085,0.8081,0.8082,0.8153,0.8154,0.8155,0.8129,0.8127,0.8124,0.8122,0.8191,0.8196,0.8201,0.828,0,0,0.8217,0.8219,0,0,0,0,0,0,0,0,0.7996,0.8005,0.8081,0.8082,0.8082,0.813,0.8126,0.8197,0.813,0.8111,0.8124,0.8121,0.8175,0.8181,0.8199,0.8283,0.8286,0.8217,0.822,0.8222,0.8224,0,0,0,0,0,0,0,0.7991,0.8002,0.8112,0.8082,0.8083,0.8077,0.8084,0.8139,0.8155,0.8112,0.8111,0.8119,0.8174,0.8194,0.82,0.8287,0.8217,0.8221,0.8225,0.8226,0.8439,0.8442,0,0,0,0,0,0,0.7986,0.7998,0.811,0.8114,0.8032,0.8081,0.8089,0.8117,0.8155,0.8158,0.8121,0.8118,0.8187,0.8194,0.8203,0.8297,0.8222,0.8227,0.823,0.8437,0.844,0.8443,0,0,0,0,0,0,0.7983,0.7996,0.8107,0.8056,0.8069,0.8087,0.8118,0.812,0.8139,0.8161,0.8164,0.8138,0.8185,0.8196,0.8261,0.8299,0.8229,0.8234,0.8434,0.8438,0.8441,0.8486,0,0,0,0,0,0,0.7979,0.7995,0.8025,0.8057,0.8072,0.8164,0.812,0.8123,0.8148,0.8144,0.8178,0.8181,0.8184,0.8253,0.8266,0.8304,0.8238,0.843,0.8435,0.844,0.8481,0.8491,0.8499,0,0,0,0,0,0.7973,0.8035,0.8027,0.804,0.811,0.8166,0.8175,0.8177,0.8151,0.8181,0.8195,0.818,0.8293,0.826,0.8274,0.8315,0.8428,0.8434,0.844,0.8477,0.8489,0.8499,0,0,0,0,0,0,0.8007,0.8039,0.803,0.8104,0.8133,0.8162,0.82,0.819,0.8226,0.8221,0.8222,0.823,0.8297,0.8313,0.8276,0.8393,0.8356,0.8365,0.838,0.8391,0.84,0.8395,0.8242,0,0,0,0,0,0.8024,0.8067,0.8092,0.8155,0.8169,0.8182,0.8207,0.8206,0.8236,0.8248,0.8267,0.8296,0.8338,0.8366,0.8406,0.8483,0.849,0.8518,0.8527,0.8535,0.8542,0.8584,0.8597,0.8462,0.8462,0.8462,0,0,0.8057,0.808,0.8107,0.8162,0.8184,0.8229,0.8193,0.8241,0.8274,0.8255,0.8317,0.8333,0.8366,0.8438,0.847,0.8452,0.8581,0.8542,0.8548,0.8551,0.8591,0.8604,0.8615,0.8466,0.8466,0.8465,0,0,0.8141,0.8163,0.8217,0.824,0.8274,0.8282,0.8295,0.8326,0.8336,0.8398,0.8385,0.8425,0.8497,0.8521,0.8543,0.8637,0.8624,0.865,0.8697,0.8738,0.8748,0.8758,0.8791,0.8803,0.8658,0.8658,0.8658,0,0.8178,0.8245,0.8246,0.8296,0.8321,0.8306,0.8361,0.8383,0.8429,0.8446,0.8426,0.8516,0.8538,0.8615,0.8638,0.8656,0.8671,0.8646,0.8747,0.8756,0.8765,0.8796,0.8809,0.8661,0.866,0.866,0.866,0,0.8289,0.8336,0.8376,0.842,0.8449,0.8501,0.8511,0.854,0.8537,0.8548,0.8612,0.8637,0.8682,0.87,0.8698,0.8777,0.8765,0.8746,0.8709,0.8781,0.881,0.8822,0.8665,0.8664,0.8663,0.8662,0,0,0.8395,0.844,0.8454,0.8474,0.8511,0.8547,0.8599,0.8643,0.8668,0.87,0.8744,0.8806,0.8788,0.8813,0.8813,0.8849,0.8922,0.8826,0.8827,0.8842,0.901,0.9023,0.9037,0.8914,0.8916,0.8918,0.9007,0,0.8481,0.8572,0.8575,0.8658,0.8701,0.8688,0.8733,0.8761,0.8772,0.881,0.8823,0.8867,0.8841,0.8856,0.8891,0.8905,0.8955,0.8899,0.8954,0.8956,0.8945,0.9053,0.9067,0.915,0.9019,0.9021,0.9022,0,0.8593,0.8629,0.8717,0.8748,0.8766,0.8806,0.8847,0.8884,0.8915,0.8921,0.8949,0.8944,0.8997,0.8959,0.9032,0.8994,0.9017,0.9027,0.9031,0.9035,0.8992,0.9059,0.9177,0.9189,0.904,0.9039,0.9038,0,0.8661,0.8731,0.8793,0.881,0.8848,0.8877,0.8894,0.8923,0.8949,0.8985,0.9002,0.9043,0.9066,0.9098,0.9104,0.9076,0.9177,0.914,0.9183,0.9183,0.9204,0.9202,0.9326,0.922,0.922,0.922,0.922,0,0.8757,0.881,0.8824,0.8861,0.8921,0.8925,0.8984,0.8999,0.9025,0.9065,0.9057,0.9095,0.9101,0.9141,0.9146,0.9205,0.9216,0.9222,0.9222,0.9222,0.9221,0.9236,0.923,0.9223,0.9222,0.9222,0.9221,0,0.8842,0.8853,0.8919,0.895,0.8959,0.9001,0.9028,0.9064,0.9075,0.9126,0.9138,0.9155,0.9201,0.9211,0.9265,0.9269,0.9339,0.9335,0.9329,0.9328,0.937,0.9366,0.9506,0.9525,0.9408,0.9409,0.941,0,0.8901,0.8942,0.8978,0.9004,0.9023,0.9066,0.9092,0.9098,0.9126,0.9165,0.9196,0.9242,0.9278,0.9352,0.9369,0.9411,0.9407,0.9453,0.9413,0.9411,0.9406,0.9404,0.9407,0.9461,0.9462,0.9463,0.9464,0,0.9006,0.9009,0.9048,0.909,0.9122,0.9155,0.9186,0.9208,0.9218,0.925,0.9297,0.9325,0.9381,0.9426,0.9468,0.9485,0.9476,0.9476,0.9488,0.9488,0.9482,0.9485,0.9349,0.9473,0.9472,0.9471,0.9471,0.947,0.9079,0.9115,0.9146,0.919,0.9214,0.9243,0.9279,0.9294,0.9334,0.9379,0.938,0.9432,0.9462,0.9518,0.9538,0.9578,0.9563,0.9581,0.9585,0.9589,0.9593,0.9477,0.9586,0.9585,0.9585,0.9585,0.9585,0,0.9183,0.9202,0.9242,0.9286,0.9321,0.931,0.9344,0.9373,0.9419,0.9448,0.9484,0.9538,0.9582,0.9603,0.9646,0.9674,0.9671,0.9685,0.9682,0.9686,0.9604,0.9588,0.9687,0.9687,0.9687,0.9687,0.9687,0.9687,0.924,0.93,0.9308,0.938,0.9399,0.9449,0.947,0.9497,0.952,0.9581,0.9617,0.9631,0.9657,0.9702,0.9741,0.9746,0.9762,0.9778,0.9781,0.9703,0.9692,0.9682,0.9668,0.9782,0.9782,0.986,0.9861,0.9862]},{"header":{"parameterUnit":"m.s-1","parameterCategory":1,"la1":30.2991,"la2":30.254,"lo1":-89.0895,"lo2":-89.0444,"dy":0.0017,"dx":0.0017,"nx":28,"ny":28,"refTime":"2025-08-29T21:00:00:Z","depth":0,"parameterNumber":3,"parameterNumberName":"V-component_of_WINDS"},"data":[0,0,0,0,0,0,0,0,0,0,0,0,0,0,0,0,0,0,0,0,0,0,0,0,0,0,0,0,0,0,0,0,0,0,0,0,0,0,0,0,0,0,0,0,0,0,0,0,0,0,0,0,0,0,0,0,0,0,1.2783,1.2783,0,1.2851,1.2852,1.2853,1.2874,1.2874,1.2873,1.2873,1.2937,1.2939,1.2941,0,0,0,0,0,0,0,0,0,0,0,0,0,1.2663,1.2666,1.2783,1.2783,1.2784,1.2851,1.2852,1.2853,1.2874,1.2874,1.2873,1.2873,1.2937,1.2939,1.2941,0,0,0,0,0,0,0,0,0,0,0,0,0,1.2722,1.2666,1.2782,1.2803,1.2806,1.2851,1.2852,1.2853,1.2874,1.2874,1.2873,1.2873,1.2936,1.2939,1.2942,1.2969,0,0,1.2951,1.2952,0,0,0,0,0,0,0,0,1.2718,1.2726,1.2799,1.2802,1.2805,1.2854,1.2833,1.2892,1.2874,1.2848,1.2873,1.2873,1.2909,1.2915,1.2928,1.2973,1.2975,1.2951,1.2953,1.2954,1.2955,0,0,0,0,0,0,0,1.2714,1.2723,1.281,1.28,1.2804,1.2807,1.2814,1.2845,1.288,1.285,1.2852,1.286,1.2911,1.2925,1.293,1.2976,1.2951,1.2954,1.2956,1.2957,1.3044,1.3045,0,0,0,0,0,0,1.2708,1.272,1.2807,1.2812,1.276,1.2809,1.2818,1.2838,1.288,1.2886,1.286,1.2861,1.292,1.2926,1.2932,1.2966,1.2954,1.2957,1.2959,1.3044,1.3044,1.3045,0,0,0,0,0,0,1.2705,1.2715,1.2805,1.2766,1.2778,1.2812,1.2834,1.284,1.2855,1.2888,1.2894,1.2869,1.292,1.2928,1.296,1.2969,1.2958,1.2961,1.3043,1.3044,1.3045,1.3036,0,0,0,0,0,0,1.2702,1.2714,1.2727,1.2766,1.278,1.2833,1.2835,1.2842,1.286,1.2862,1.2898,1.2903,1.2921,1.2955,1.2963,1.2973,1.2963,1.3042,1.3043,1.3044,1.3035,1.3036,1.3037,0,0,0,0,0,1.2697,1.2721,1.2728,1.2738,1.2797,1.2834,1.2841,1.2863,1.2861,1.2873,1.2894,1.2902,1.2967,1.2959,1.2967,1.2978,1.3042,1.3043,1.3044,1.3035,1.3036,1.3037,0,0,0,0,0,0,1.268,1.2726,1.2734,1.2772,1.2799,1.2837,1.2853,1.2863,1.289,1.289,1.2913,1.2921,1.2951,1.2968,1.2958,1.3006,1.3004,1.3007,1.2994,1.2995,1.2996,1.2991,1.2966,0,0,0,0,0,1.268,1.2709,1.2747,1.2776,1.279,1.2819,1.2836,1.285,1.2878,1.2889,1.2913,1.2938,1.2964,1.2981,1.3006,1.3038,1.3045,1.3049,1.305,1.305,1.3052,1.3068,1.307,1.3049,1.3049,1.3049,0,0,1.2682,1.2711,1.2727,1.2773,1.2796,1.2823,1.2828,1.2857,1.2876,1.2893,1.2925,1.2943,1.2972,1.3004,1.3019,1.3019,1.306,1.3052,1.3052,1.3054,1.307,1.3072,1.3073,1.305,1.3049,1.3049,0,0,1.2698,1.2723,1.275,1.2772,1.2807,1.2826,1.2833,1.287,1.2883,1.2916,1.2928,1.295,1.2995,1.3015,1.3031,1.3053,1.3061,1.3061,1.3064,1.3079,1.3081,1.3083,1.3089,1.3092,1.3063,1.3063,1.3063,0,1.2694,1.2737,1.2761,1.2789,1.2808,1.2827,1.2852,1.2872,1.2913,1.2924,1.2924,1.298,1.3001,1.3037,1.3042,1.3055,1.3061,1.3057,1.3079,1.3081,1.3083,1.3089,1.3092,1.3063,1.3063,1.3063,1.3063,0,1.2731,1.276,1.2777,1.2817,1.2838,1.2865,1.2891,1.2908,1.292,1.2938,1.297,1.2996,1.3027,1.3036,1.3048,1.3073,1.3072,1.3075,1.3074,1.3084,1.3091,1.3094,1.3062,1.3062,1.3062,1.3062,0,0,1.2738,1.2791,1.2797,1.2815,1.2854,1.2876,1.2902,1.2934,1.2948,1.2975,1.2996,1.3033,1.3036,1.3054,1.3067,1.3081,1.3095,1.3082,1.3083,1.3083,1.3122,1.3119,1.3122,1.31,1.3101,1.3101,1.312,0,1.2758,1.2808,1.283,1.2869,1.2895,1.2912,1.2934,1.2959,1.2976,1.2999,1.3017,1.3043,1.3046,1.3057,1.3071,1.309,1.3103,1.3089,1.3118,1.3119,1.311,1.3126,1.3123,1.3139,1.3122,1.3123,1.3123,0,1.2789,1.2817,1.286,1.2895,1.2906,1.2926,1.2956,1.2979,1.3006,1.3018,1.3038,1.3051,1.3076,1.3073,1.3107,1.3097,1.311,1.3121,1.3122,1.3125,1.3121,1.3128,1.3145,1.3147,1.3128,1.3127,1.3127,0,1.2789,1.2837,1.2869,1.2884,1.2926,1.2939,1.2956,1.2984,1.3001,1.3027,1.3038,1.3065,1.308,1.3099,1.3118,1.3114,1.315,1.3149,1.3158,1.3158,1.3165,1.3164,1.3183,1.3174,1.3174,1.3174,1.3174,0,1.2809,1.2833,1.2869,1.2888,1.2916,1.2939,1.2965,1.2983,1.3007,1.3028,1.3044,1.3063,1.3087,1.3108,1.3123,1.3148,1.3154,1.3163,1.3166,1.3161,1.316,1.317,1.3169,1.3174,1.3174,1.3174,1.3174,0,1.2813,1.2838,1.2873,1.291,1.292,1.2938,1.2969,1.2987,1.3005,1.3031,1.3038,1.3066,1.3091,1.3112,1.3145,1.3155,1.3181,1.3185,1.3172,1.3174,1.3182,1.3181,1.3208,1.3212,1.32,1.32,1.32,0,1.2824,1.2844,1.2883,1.29,1.2918,1.2943,1.2961,1.2984,1.3002,1.3034,1.3048,1.3075,1.3098,1.3138,1.3159,1.3184,1.3189,1.3196,1.3193,1.3187,1.3188,1.3186,1.3188,1.3197,1.3197,1.3197,1.3197,0,1.2841,1.2852,1.2879,1.2909,1.2931,1.2955,1.298,1.2992,1.3019,1.3038,1.3065,1.3083,1.3118,1.3144,1.3171,1.3186,1.3195,1.3198,1.3201,1.3196,1.3188,1.3192,1.3173,1.3197,1.3197,1.3197,1.3197,1.3197,1.2848,1.2866,1.2897,1.2925,1.2946,1.2969,1.2988,1.3008,1.3032,1.3064,1.3075,1.3103,1.3128,1.3165,1.3181,1.3201,1.3202,1.3207,1.3208,1.3209,1.3208,1.3185,1.3206,1.3206,1.3206,1.3206,1.3206,0,1.2865,1.2885,1.2911,1.2946,1.2968,1.2977,1.3004,1.3021,1.3046,1.307,1.3093,1.3123,1.3148,1.3172,1.3197,1.3209,1.3214,1.3215,1.3214,1.3217,1.3207,1.3201,1.3211,1.3211,1.3211,1.3211,1.3211,1.3211,1.2876,1.2906,1.2921,1.2961,1.2981,1.301,1.3025,1.3045,1.3064,1.3098,1.312,1.3136,1.3158,1.3186,1.3208,1.3214,1.3222,1.3222,1.3229,1.3219,1.3218,1.3217,1.3212,1.3224,1.3224,1.3238,1.3238,1.3238]}]]